APSTAR-6E

Last updated on Tue Sep 16 2025 00:02:50 GMT+0000 (Coordinated Universal Time)

1 55239U 23005A 25258.48360307 -.00000334 00000+0 00000+0 0 9996 2 55239 0.0411 243.2236 0004282 327.4262 92.1425 1.00270173 15949
UTC large
Height (km)
Speed (km/s)
/
Latitude / Longitude
Inclination (degrees)
Orbital Period (minutes)
Azimuth
Elevation
Range (km)
Doppler Factor

Next 0 passes for location: London (51.5072 / 0.1276)

Sorry there are no passes over London.